2023-035A (55908 NORAD) Tracking and Keplerian Element Data

This shows tracking and keplerian element data for the satellite.

Feedback or suggestion? Click here.




ElementValue
Catalog55908
Name2023-035A
Epoch Orbit763
Epoch Day127.14437131
Epoch Year2023
RAAN45.1286
Inclination44.1826
Eccentricity0.0002231
Argument of Perigee119.4018
Mean Anonmoly240.7061
Mean Motion14.902805
Decay Rate5.207E-05
L11 55908U 23035A 23127.14437131 .00005207 00000+0 54830-3 0 9995
L22 55908 44.1826 45.1286 0002231 119.4018 240.7061 14.90280500 7637



Live tracking and technical data element details for 2023-035A (NORAD 55908). 2023-035A can be tracked NOW for your location showing map with azimuth and elevation plus other details from your city location.







IsCatalogInMostPopularTable: catalog: 55908, numindb: 8
Update: records affected: 1



GetName: 55908 2023-035A

Hit Count: updated at: Tue, 06 Jun 2023 01:59:18 GMT